Voltar ao catálogo

THORAD DELTA 1 DEB

AtivoSSO
NORAD 8181·DEBRIS·🇺🇸 United States

Lançado Nov 15, 1974 de Vandenberg Space Force Base

Loading…

Próximas Passagens (próximas 24 horas)

TLE

AtualizadoSource: Space-Track

Época: Sep 14, 2026, 13:02 UTC

1 08181U 74089AX  26257.54363640  .00000051  00000-0  69174-3 0  9995
2 08181 101.6965   0.6188 0068289 192.7873 236.3732 12.40357043345457

Acompanhe THORAD DELTA 1 DEB em tempo real com AllMySat

Download on the App Store